Back to catalog

SL-14 DEB

AlivePO
NORAD 45348·DEBRIS·🇷🇺 Russia

Launched Aug 15, 1991 from Plesetsk Cosmodrome

Loading…

Next Passes (next 24 hours)

TLE

FreshSource: Space-Track

Epoch: Sep 13, 2026, 06:00 UTC

1 45348U 91056CH  26256.25041148  .00000055  00000-0  10765-3 0  9993
2 45348  82.5625  73.1701 0020507 225.2357 134.7099 13.19278439314562

Track SL-14 DEB in real time with AllMySat

Download on the App Store